Kahului, HI

3:42 AM HST on May 30, 2017 (GMT -1000)
Kahului

Weather History for PHOG - October, 2013

Change the Weather History Date:

Thursday, October 24, 2013

  Actual Average Record
Temperature  
Mean Temperature 76 °F 78 °F  
Max Temperature 88 °F 86 °F 93 °F (1984)
Min Temperature 64 °F 69 °F 60 °F (1953)
Degree Days  
Heating Degree Days 0 0  
Month to date heating degree days 0 0  
Since 1 July heating degree days 0 0  
Cooling Degree Days 11 13  
Month to date cooling degree days 310 321  
Year to date cooling degree days 3558 3289  
Growing Degree Days 26 (Base 50)    
Moisture  
Dew Point 65 °F    
Average Humidity 69    
Maximum Humidity 87    
Minimum Humidity 50    
Precipitation  
Precipitation 0.00 in 0.05 in 0.62 in (1958)
Month to date precipitation 0.03 0.86  
Year to date precipitation 8.94 11.94  
Snow  
Snow 0.00 in - - ()
Month to date snowfall 0.0  
Since 1 July snowfall 0.0  
Since 1 September snowfall 0.0  
Snow Depth 0.00 in    
Sea Level Pressure  
Sea Level Pressure 29.98 in    
Wind  
Wind Speed 9 mph (ENE)    
Max Wind Speed 24 mph    
Max Gust Speed 29 mph    
Visibility 10 miles    
Events      
T = Trace of Precipitation, MM = Missing Value Source: NWS Daily Summary

Daily Weather History Graph

Daily Weather History Graph

Search for Another Location

Airport or City:

Trip Planner

Search our weather history database for the weather conditions in past years. The results will help you decide how hot, cold, wet, or windy it might be!

Date:

Astronomy

Oct. 24, 2013 Rise Set
Actual Time 6:24 AM HST 5:54 PM HST
Civil Twilight 6:02 AM HST 6:17 PM HST
Nautical Twilight 5:36 AM HST 6:43 PM HST
Astronomical Twilight 5:10 AM HST 7:09 PM HST
Moon 10:42 PM HST (10/24) 11:18 AM HST (10/24)
Length of Visible Light 12h 15m
Length of Day
11h 29m
Waning Gibbous, 69% of the Moon is Illuminated
Oct 24
Waning Gibbous
Oct 26
Last Quarter
Nov 3
New
Nov 9
First Quarter
Nov 17
Full

Hourly Weather History & Observations

Time (HST) Temp. Heat Index Dew Point Humidity Pressure Visibility Wind Dir Wind Speed Gust Speed Precip Events Conditions
12:54 AM 73.9 °F - 64.9 °F 73% 30.00 in 10.0 mi NNE 6.9 mph - N/A   Scattered Clouds
1:54 AM 68.0 °F - 63.0 °F 84% 29.99 in 10.0 mi SE 5.8 mph - N/A   Clear
2:54 AM 66.0 °F - 62.1 °F 87% 29.97 in 10.0 mi SSE 3.5 mph - N/A   Clear
3:54 AM 66.9 °F - 62.1 °F 84% 29.97 in 10.0 mi Calm Calm - N/A   Scattered Clouds
4:54 AM 64.9 °F - 61.0 °F 87% 29.97 in 10.0 mi SE 3.5 mph - N/A   Clear
5:54 AM 64.0 °F - 60.1 °F 87% 29.98 in 10.0 mi Calm Calm - N/A   Clear
6:54 AM 64.9 °F - 60.1 °F 84% 30.00 in 10.0 mi Calm Calm - N/A   Partly Cloudy
7:54 AM 73.9 °F - 63.0 °F 68% 30.01 in 10.0 mi Calm Calm - N/A   Smoke
8:54 AM 82.9 °F 85.0 °F 66.0 °F 56% 30.01 in 10.0 mi ENE 12.7 mph - N/A   Partly Cloudy
9:54 AM 84.9 °F 86.6 °F 64.9 °F 51% 30.00 in 10.0 mi NE 16.1 mph 21.9 mph N/A   Partly Cloudy
10:54 AM 84.9 °F 86.6 °F 64.9 °F 51% 29.99 in 10.0 mi ENE 15.0 mph 20.7 mph N/A   Partly Cloudy
11:54 AM 86.0 °F 88.8 °F 66.9 °F 53% 29.96 in 10.0 mi NE 20.7 mph - N/A   Scattered Clouds
12:54 PM 87.1 °F 89.9 °F 66.9 °F 51% 29.94 in 10.0 mi NE 20.7 mph 26.5 mph N/A   Scattered Clouds
1:54 PM 87.1 °F 89.2 °F 66.0 °F 49% 29.92 in 10.0 mi NE 19.6 mph - N/A   Scattered Clouds
2:54 PM 87.1 °F 89.2 °F 66.0 °F 49% 29.91 in 10.0 mi NE 17.3 mph - N/A   Scattered Clouds
3:54 PM 84.9 °F 87.6 °F 66.9 °F 55% 29.92 in 10.0 mi NNE 21.9 mph - N/A   Partly Cloudy
4:54 PM 82.0 °F 84.5 °F 66.9 °F 60% 29.93 in 10.0 mi NE 18.4 mph 24.2 mph N/A   Scattered Clouds
5:54 PM 79.0 °F - 68.0 °F 69% 29.94 in 10.0 mi NE 19.6 mph 24.2 mph N/A   Partly Cloudy
6:54 PM 78.1 °F - 66.9 °F 68% 29.96 in 10.0 mi East 8.1 mph - N/A   Mostly Cloudy
7:54 PM 78.1 °F - 66.0 °F 66% 29.99 in 10.0 mi ENE 8.1 mph - N/A   Scattered Clouds
8:54 PM 75.9 °F - 66.0 °F 71% 30.01 in 10.0 mi ENE 4.6 mph - N/A   Clear
9:54 PM 73.9 °F - 64.9 °F 73% 30.01 in 10.0 mi Calm Calm - N/A   Scattered Clouds
10:54 PM 73.9 °F - 66.0 °F 76% 30.01 in 10.0 mi Calm Calm - N/A   Scattered Clouds
11:54 PM 71.1 °F - 64.9 °F 81% 30.01 in 10.0 mi East 3.5 mph - N/A   Clear